Time,TemperatureF,DewpointF,PressureIn,WindDirection,WindDirectionDegrees,WindSpeedMPH,WindSpeedGustMPH,Humidity,HourlyPrecipIn,Conditions,Clouds,dailyrainin,SoftwareType,DateUTC
2013-02-02 00:01:00,51.9,42.9,30.20,SSE,159,0.0,1.0,71,0.00,,,0.00,WUHU216DAVISVP2,2013-02-02 06:01:00,
2013-02-02 00:06:00,51.9,42.9,30.21,SSE,159,0.0,1.0,71,0.00,,,0.00,WUHU216DAVISVP2,2013-02-02 06:06:00,
2013-02-02 00:11:00,51.7,42.7,30.20,SSE,159,0.0,1.0,71,0.00,,,0.00,WUHU216DAVISVP2,2013-02-02 06:11:00,
2013-02-02 00:16:00,51.4,42.7,30.20,SSE,159,0.0,0.0,72,0.00,,,0.00,WUHU216DAVISVP2,2013-02-02 06:16:00,
2013-02-02 00:21:00,51.2,42.8,30.20,SSE,159,0.0,0.0,73,0.00,,,0.00,WUHU216DAVISVP2,2013-02-02 06:21:00,
2013-02-02 00:26:00,51.0,43.0,30.20,SSE,159,0.0,0.0,74,0.00,,,0.00,WUHU216DAVISVP2,2013-02-02 06:26:00,
2013-02-02 00:31:00,51.0,43.1,30.20,SSE,159,0.0,0.0,74,0.00,,,0.00,WUHU216DAVISVP2,2013-02-02 06:31:00,
2013-02-02 00:36:00,51.0,43.1,30.20,SSE,159,0.0,0.0,74,0.00,,,0.00,WUHU216DAVISVP2,2013-02-02 06:36:00,
2013-02-02 00:42:00,50.8,43.2,30.20,SSE,159,0.0,0.0,75,0.00,,,0.00,WUHU216DAVISVP2,2013-02-02 06:42:00,
2013-02-02 00:47:00,50.6,43.0,30.20,SSE,159,0.0,0.0,75,0.00,,,0.00,WUHU216DAVISVP2,2013-02-02 06:47:00,
2013-02-02 00:51:00,50.4,43.2,30.20,SSE,159,0.0,0.0,76,0.00,,,0.00,WUHU216DAVISVP2,2013-02-02 06:51:00,
2013-02-02 00:56:00,50.2,43.3,30.20,SSE,159,0.0,0.0,77,0.00,,,0.00,WUHU216DAVISVP2,2013-02-02 06:56:00,
2013-02-02 01:01:00,50.2,43.7,30.19,SSE,159,0.0,0.0,78,0.00,,,0.00,WUHU216DAVISVP2,2013-02-02 07:01:00,
2013-02-02 01:07:00,50.2,43.7,30.19,SSE,159,0.0,0.0,78,0.00,,,0.00,WUHU216DAVISVP2,2013-02-02 07:07:00,
2013-02-02 01:11:00,50.2,43.7,30.19,SSE,159,0.0,0.0,78,0.00,,,0.00,WUHU216DAVISVP2,2013-02-02 07:11:00,
2013-02-02 01:17:00,50.1,43.2,30.19,SSE,159,0.0,0.0,77,0.00,,,0.00,WUHU216DAVISVP2,2013-02-02 07:17:00,
2013-02-02 01:22:00,50.0,43.5,30.19,SSE,159,0.0,0.0,78,0.00,,,0.00,WUHU216DAVISVP2,2013-02-02 07:22:00,
2013-02-02 01:27:00,49.9,43.7,30.18,SSE,165,0.0,1.0,79,0.00,,,0.00,WUHU216DAVISVP2,2013-02-02 07:27:00,
2013-02-02 01:32:00,49.8,43.5,30.18,SSE,165,0.0,1.0,79,0.00,,,0.00,WUHU216DAVISVP2,2013-02-02 07:32:00,
2013-02-02 01:37:00,49.5,42.6,30.18,SSE,165,0.0,1.0,77,0.00,,,0.00,WUHU216DAVISVP2,2013-02-02 07:37:00,
2013-02-02 01:42:00,49.1,42.9,30.18,SSE,165,0.0,1.0,79,0.00,,,0.00,WUHU216DAVISVP2,2013-02-02 07:42:00,
2013-02-02 01:47:00,48.8,42.9,30.18,SSE,165,0.0,0.0,80,0.00,,,0.00,WUHU216DAVISVP2,2013-02-02 07:47:00,
2013-02-02 01:51:00,48.6,43.1,30.18,SSE,165,0.0,0.0,81,0.00,,,0.00,WUHU216DAVISVP2,2013-02-02 07:51:00,
2013-02-02 01:56:00,48.5,43.3,30.18,SSE,165,0.0,0.0,82,0.00,,,0.00,WUHU216DAVISVP2,2013-02-02 07:56:00,
2013-02-02 02:02:00,48.5,43.3,30.18,SSE,165,0.0,0.0,82,0.00,,,0.00,WUHU216DAVISVP2,2013-02-02 08:02:00,
2013-02-02 02:07:00,48.5,43.0,30.18,SSE,165,0.0,0.0,81,0.00,,,0.00,WUHU216DAVISVP2,2013-02-02 08:07:00,
2013-02-02 02:11:00,48.4,42.9,30.18,SSE,165,0.0,0.0,81,0.00,,,0.00,WUHU216DAVISVP2,2013-02-02 08:11:00,
2013-02-02 02:17:00,48.1,42.6,30.18,SSE,165,0.0,0.0,81,0.00,,,0.00,WUHU216DAVISVP2,2013-02-02 08:17:00,
2013-02-02 02:22:00,47.8,42.3,30.18,SSE,165,0.0,0.0,81,0.00,,,0.00,WUHU216DAVISVP2,2013-02-02 08:22:00,
2013-02-02 02:27:00,47.4,42.2,30.18,SSE,165,0.0,0.0,82,0.00,,,0.00,WUHU216DAVISVP2,2013-02-02 08:27:00,
2013-02-02 02:32:00,47.1,42.2,30.18,SSE,165,0.0,0.0,83,0.00,,,0.00,WUHU216DAVISVP2,2013-02-02 08:32:00,
2013-02-02 02:37:00,46.9,42.0,30.18,SSE,165,0.0,0.0,83,0.00,,,0.00,WUHU216DAVISVP2,2013-02-02 08:37:00,
2013-02-02 02:42:00,46.6,42.0,30.18,SSE,165,0.0,0.0,84,0.00,,,0.00,WUHU216DAVISVP2,2013-02-02 08:42:00,
2013-02-02 02:47:00,46.4,41.8,30.17,SSE,165,0.0,0.0,84,0.00,,,0.00,WUHU216DAVISVP2,2013-02-02 08:47:00,
2013-02-02 02:52:00,46.1,41.2,30.17,SSE,165,0.0,0.0,83,0.00,,,0.00,WUHU216DAVISVP2,2013-02-02 08:52:00,
2013-02-02 02:57:00,45.9,41.3,30.17,SSE,165,0.0,0.0,84,0.00,,,0.00,WUHU216DAVISVP2,2013-02-02 08:57:00,
2013-02-02 03:01:00,45.7,41.8,30.17,SSE,165,0.0,0.0,86,0.00,,,0.00,WUHU216DAVISVP2,2013-02-02 09:01:00,
2013-02-02 03:07:00,45.6,42.0,30.17,SSE,165,0.0,0.0,87,0.00,,,0.00,WUHU216DAVISVP2,2013-02-02 09:07:00,
2013-02-02 03:11:00,45.6,41.6,30.17,SSE,165,0.0,0.0,86,0.00,,,0.00,WUHU216DAVISVP2,2013-02-02 09:11:00,
2013-02-02 03:16:00,45.5,41.5,30.17,SSE,165,0.0,0.0,86,0.00,,,0.00,WUHU216DAVISVP2,2013-02-02 09:16:00,
2013-02-02 03:21:00,45.4,41.7,30.17,SSE,165,0.0,0.0,87,0.00,,,0.00,WUHU216DAVISVP2,2013-02-02 09:21:00,
2013-02-02 03:27:00,45.3,41.9,30.17,SSE,165,0.0,0.0,88,0.00,,,0.00,WUHU216DAVISVP2,2013-02-02 09:27:00,
2013-02-02 03:32:00,45.3,41.9,30.17,SSE,165,0.0,0.0,88,0.00,,,0.00,WUHU216DAVISVP2,2013-02-02 09:32:00,
2013-02-02 03:37:00,45.2,41.8,30.17,SSE,165,0.0,0.0,88,0.00,,,0.00,WUHU216DAVISVP2,2013-02-02 09:37:00,
2013-02-02 03:41:00,45.2,41.8,30.17,SSE,165,0.0,0.0,88,0.00,,,0.00,WUHU216DAVISVP2,2013-02-02 09:41:00,
2013-02-02 03:46:00,45.1,41.4,30.17,SSE,165,0.0,0.0,87,0.00,,,0.00,WUHU216DAVISVP2,2013-02-02 09:46:00,
2013-02-02 03:52:00,45.0,41.3,30.17,SSE,165,0.0,0.0,87,0.00,,,0.00,WUHU216DAVISVP2,2013-02-02 09:52:00,
2013-02-02 03:57:00,44.7,41.0,30.16,SSE,165,0.0,0.0,87,0.00,,,0.00,WUHU216DAVISVP2,2013-02-02 09:57:00,
2013-02-02 04:02:00,44.5,41.1,30.17,SSE,165,0.0,0.0,88,0.00,,,0.00,WUHU216DAVISVP2,2013-02-02 10:02:00,
2013-02-02 04:07:00,44.4,41.0,30.17,NW,318,0.0,2.0,88,0.00,,,0.00,WUHU216DAVISVP2,2013-02-02 10:07:00,
2013-02-02 04:12:00,44.3,41.2,30.17,NW,318,0.0,2.0,89,0.00,,,0.00,WUHU216DAVISVP2,2013-02-02 10:12:00,
2013-02-02 04:17:00,44.3,41.2,30.17,NW,318,0.0,2.0,89,0.00,,,0.00,WUHU216DAVISVP2,2013-02-02 10:17:00,
2013-02-02 04:22:00,44.2,40.8,30.17,NW,318,0.0,2.0,88,0.00,,,0.00,WUHU216DAVISVP2,2013-02-02 10:22:00,
2013-02-02 04:27:00,44.1,41.3,30.17,NW,318,0.0,2.0,90,0.00,,,0.00,WUHU216DAVISVP2,2013-02-02 10:27:00,
2013-02-02 04:32:00,44.2,41.4,30.17,NW,318,0.0,0.0,90,0.00,,,0.00,WUHU216DAVISVP2,2013-02-02 10:32:00,
2013-02-02 04:36:00,44.3,41.5,30.17,NW,318,0.0,0.0,90,0.00,,,0.00,WUHU216DAVISVP2,2013-02-02 10:36:00,
2013-02-02 04:41:00,44.3,41.2,30.17,NW,318,0.0,0.0,89,0.00,,,0.00,WUHU216DAVISVP2,2013-02-02 10:41:00,
2013-02-02 04:46:00,44.1,40.7,30.17,NW,318,0.0,0.0,88,0.00,,,0.00,WUHU216DAVISVP2,2013-02-02 10:46:00,
2013-02-02 04:51:00,44.0,41.2,30.17,NW,318,0.0,0.0,90,0.00,,,0.00,WUHU216DAVISVP2,2013-02-02 10:51:00,
2013-02-02 04:57:00,44.0,41.2,30.17,NW,318,0.0,0.0,90,0.00,,,0.00,WUHU216DAVISVP2,2013-02-02 10:57:00,
2013-02-02 05:02:00,44.0,40.9,30.17,NW,318,0.0,0.0,89,0.00,,,0.00,WUHU216DAVISVP2,2013-02-02 11:02:00,
2013-02-02 05:07:00,43.8,40.7,30.17,NW,318,0.0,0.0,89,0.00,,,0.00,WUHU216DAVISVP2,2013-02-02 11:07:00,
2013-02-02 05:12:00,43.7,40.9,30.17,NW,318,0.0,0.0,90,0.00,,,0.00,WUHU216DAVISVP2,2013-02-02 11:12:00,
2013-02-02 05:17:00,43.6,40.8,30.17,NW,318,0.0,0.0,90,0.00,,,0.00,WUHU216DAVISVP2,2013-02-02 11:17:00,
2013-02-02 05:22:00,43.6,40.9,30.18,NW,318,0.0,0.0,90,0.00,,,0.00,WUHU216DAVISVP2,2013-02-02 11:22:00,
2013-02-02 05:27:00,43.6,40.8,30.17,NW,318,0.0,0.0,90,0.00,,,0.00,WUHU216DAVISVP2,2013-02-02 11:27:00,
2013-02-02 05:32:00,43.6,40.9,30.18,NW,318,0.0,0.0,90,0.00,,,0.00,WUHU216DAVISVP2,2013-02-02 11:32:00,
2013-02-02 05:37:00,43.6,40.8,30.18,NW,318,0.0,0.0,90,0.00,,,0.00,WUHU216DAVISVP2,2013-02-02 11:37:00,
2013-02-02 05:42:00,43.5,41.0,30.18,NW,318,0.0,0.0,91,0.00,,,0.00,WUHU216DAVISVP2,2013-02-02 11:42:00,
2013-02-02 05:47:00,43.5,41.0,30.18,NW,322,1.0,1.0,91,0.00,,,0.00,WUHU216DAVISVP2,2013-02-02 11:47:00,
2013-02-02 05:52:00,43.5,41.0,30.19,NW,322,0.0,1.0,91,0.00,,,0.00,WUHU216DAVISVP2,2013-02-02 11:52:00,
2013-02-02 05:57:00,43.6,41.4,30.19,NW,322,0.0,1.0,92,0.00,,,0.00,WUHU216DAVISVP2,2013-02-02 11:57:00,
2013-02-02 06:02:00,43.7,41.2,30.18,NW,322,0.0,1.0,91,0.00,,,0.00,WUHU216DAVISVP2,2013-02-02 12:02:00,
2013-02-02 06:07:00,43.7,41.2,30.19,NW,322,0.0,0.0,91,0.00,,,0.00,WUHU216DAVISVP2,2013-02-02 12:07:00,
2013-02-02 06:12:00,43.7,41.2,30.19,NW,322,0.0,1.0,91,0.00,,,0.00,WUHU216DAVISVP2,2013-02-02 12:12:00,
2013-02-02 06:17:00,43.8,41.3,30.19,NW,322,0.0,1.0,91,0.00,,,0.00,WUHU216DAVISVP2,2013-02-02 12:17:00,
2013-02-02 06:22:00,43.7,41.2,30.19,NW,322,0.0,1.0,91,0.00,,,0.00,WUHU216DAVISVP2,2013-02-02 12:22:00,
2013-02-02 06:27:00,43.6,41.1,30.19,NW,322,0.0,1.0,91,0.00,,,0.00,WUHU216DAVISVP2,2013-02-02 12:27:00,
2013-02-02 06:32:00,43.5,41.0,30.19,NW,322,0.0,0.0,91,0.00,,,0.00,WUHU216DAVISVP2,2013-02-02 12:32:00,
2013-02-02 06:37:00,43.5,41.3,30.20,NW,322,0.0,0.0,92,0.00,,,0.00,WUHU216DAVISVP2,2013-02-02 12:37:00,
2013-02-02 06:42:00,43.6,41.4,30.20,NW,322,0.0,0.0,92,0.00,,,0.00,WUHU216DAVISVP2,2013-02-02 12:42:00,
2013-02-02 06:47:00,43.6,41.4,30.20,NW,322,0.0,0.0,92,0.00,,,0.00,WUHU216DAVISVP2,2013-02-02 12:47:00,
2013-02-02 06:52:00,43.7,41.5,30.20,NW,322,0.0,0.0,92,0.00,,,0.00,WUHU216DAVISVP2,2013-02-02 12:52:00,
2013-02-02 06:57:00,43.8,41.6,30.20,NW,322,0.0,0.0,92,0.00,,,0.00,WUHU216DAVISVP2,2013-02-02 12:57:00,
2013-02-02 07:02:00,44.0,42.1,30.20,NW,322,0.0,0.0,93,0.00,,,0.00,WUHU216DAVISVP2,2013-02-02 13:02:00,
2013-02-02 07:07:00,44.1,42.2,30.21,NW,322,0.0,0.0,93,0.00,,,0.00,WUHU216DAVISVP2,2013-02-02 13:07:00,
2013-02-02 07:12:00,44.1,41.9,30.21,NW,322,0.0,0.0,92,0.00,,,0.00,WUHU216DAVISVP2,2013-02-02 13:12:00,
2013-02-02 07:17:00,44.1,41.9,30.21,NW,322,0.0,0.0,92,0.00,,,0.00,WUHU216DAVISVP2,2013-02-02 13:17:00,
2013-02-02 07:22:00,43.8,40.7,30.21,NW,322,0.0,0.0,89,0.00,,,0.00,WUHU216DAVISVP2,2013-02-02 13:22:00,
2013-02-02 07:27:00,43.4,40.3,30.21,NNE,12,0.0,1.0,89,0.00,,,0.00,WUHU216DAVISVP2,2013-02-02 13:27:00,
2013-02-02 07:32:00,43.2,40.4,30.21,NNE,12,0.0,1.0,90,0.00,,,0.00,WUHU216DAVISVP2,2013-02-02 13:32:00,
2013-02-02 07:37:00,43.2,41.0,30.21,NNE,12,0.0,1.0,92,0.00,,,0.00,WUHU216DAVISVP2,2013-02-02 13:37:00,
2013-02-02 07:42:00,43.3,41.1,30.22,NNE,12,0.0,1.0,92,0.00,,,0.00,WUHU216DAVISVP2,2013-02-02 13:42:00,
2013-02-02 07:47:00,43.6,41.7,30.22,NNE,12,0.0,0.0,93,0.00,,,0.00,WUHU216DAVISVP2,2013-02-02 13:47:00,
2013-02-02 07:52:00,43.8,41.9,30.21,NNE,12,0.0,0.0,93,0.00,,,0.00,WUHU216DAVISVP2,2013-02-02 13:52:00,
2013-02-02 07:57:00,44.2,42.3,30.22,NNE,12,0.0,0.0,93,0.00,,,0.00,WUHU216DAVISVP2,2013-02-02 13:57:00,
2013-02-02 08:02:00,44.6,42.7,30.22,NNE,12,1.0,1.0,93,0.00,,,0.00,WUHU216DAVISVP2,2013-02-02 14:02:00,
2013-02-02 08:07:00,45.1,43.2,30.22,NNE,12,0.0,1.0,93,0.00,,,0.00,WUHU216DAVISVP2,2013-02-02 14:07:00,
2013-02-02 08:12:00,46.0,44.0,30.22,NNE,12,0.0,2.0,93,0.00,,,0.00,WUHU216DAVISVP2,2013-02-02 14:12:00,
2013-02-02 08:17:00,46.7,44.5,30.22,NNE,12,0.0,2.0,92,0.00,,,0.00,WUHU216DAVISVP2,2013-02-02 14:17:00,
2013-02-02 08:22:00,47.3,44.8,30.22,NNE,12,0.0,2.0,91,0.00,,,0.00,WUHU216DAVISVP2,2013-02-02 14:22:00,
2013-02-02 08:27:00,47.9,45.4,30.23,NNE,12,0.0,2.0,91,0.00,,,0.00,WUHU216DAVISVP2,2013-02-02 14:27:00,
2013-02-02 08:32:00,48.3,45.5,30.23,NNE,22,0.0,1.0,90,0.00,,,0.00,WUHU216DAVISVP2,2013-02-02 14:32:00,
2013-02-02 08:37:00,49.2,45.8,30.23,NNE,22,0.0,1.0,88,0.00,,,0.00,WUHU216DAVISVP2,2013-02-02 14:37:00,
2013-02-02 08:42:00,49.7,46.3,30.23,NNE,22,0.0,1.0,88,0.00,,,0.00,WUHU216DAVISVP2,2013-02-02 14:42:00,
2013-02-02 08:47:00,50.3,46.9,30.23,NNE,22,0.0,1.0,88,0.00,,,0.00,WUHU216DAVISVP2,2013-02-02 14:47:00,
2013-02-02 08:52:00,50.9,47.2,30.23,NNE,22,0.0,1.0,87,0.00,,,0.00,WUHU216DAVISVP2,2013-02-02 14:52:00,
2013-02-02 08:57:00,51.4,47.4,30.23,NNE,22,0.0,1.0,86,0.00,,,0.00,WUHU216DAVISVP2,2013-02-02 14:57:00,
2013-02-02 09:02:00,52.0,47.6,30.23,NNE,22,0.0,1.0,85,0.00,,,0.00,WUHU216DAVISVP2,2013-02-02 15:02:00,
2013-02-02 09:07:00,52.5,48.1,30.23,NNE,22,0.0,1.0,85,0.00,,,0.00,WUHU216DAVISVP2,2013-02-02 15:07:00,
2013-02-02 09:12:00,53.1,48.7,30.23,NNE,22,0.0,0.0,85,0.00,,,0.00,WUHU216DAVISVP2,2013-02-02 15:12:00,
2013-02-02 09:17:00,53.7,49.0,30.23,NNE,22,0.0,0.0,84,0.00,,,0.00,WUHU216DAVISVP2,2013-02-02 15:17:00,
2013-02-02 09:22:00,54.5,49.4,30.23,NNE,22,0.0,1.0,83,0.00,,,0.00,WUHU216DAVISVP2,2013-02-02 15:22:00,
2013-02-02 09:27:00,55.5,50.1,30.24,NNE,22,1.0,1.0,82,0.00,,,0.00,WUHU216DAVISVP2,2013-02-02 15:27:00,
2013-02-02 09:32:00,56.4,50.4,30.24,ESE,117,2.0,2.0,80,0.00,,,0.00,WUHU216DAVISVP2,2013-02-02 15:32:00,
2013-02-02 09:37:00,57.1,50.7,30.24,ESE,118,0.0,2.0,79,0.00,,,0.00,WUHU216DAVISVP2,2013-02-02 15:37:00,
2013-02-02 09:42:00,58.0,51.2,30.24,SSE,159,0.0,3.0,78,0.00,,,0.00,WUHU216DAVISVP2,2013-02-02 15:42:00,
2013-02-02 09:47:00,58.9,51.8,30.24,SE,146,3.0,3.0,77,0.00,,,0.00,WUHU216DAVISVP2,2013-02-02 15:47:00,
2013-02-02 09:52:00,59.8,51.9,30.24,SE,145,1.0,5.0,75,0.00,,,0.00,WUHU216DAVISVP2,2013-02-02 15:52:00,
2013-02-02 09:57:00,60.2,52.0,30.24,SE,145,3.0,5.0,74,0.00,,,0.00,WUHU216DAVISVP2,2013-02-02 15:57:00,
2013-02-02 10:04:00,60.9,52.7,30.24,SSE,154,1.0,6.0,74,0.00,,,0.00,WUHU216DAVISVP2,2013-02-02 16:04:00,
2013-02-02 10:09:00,61.3,52.7,30.24,SSE,157,1.0,6.0,73,0.00,,,0.00,WUHU216DAVISVP2,2013-02-02 16:09:00,
2013-02-02 10:15:00,62.2,53.2,30.24,SSE,147,1.0,6.0,72,0.00,,,0.00,WUHU216DAVISVP2,2013-02-02 16:15:00,
2013-02-02 10:20:00,63.1,53.7,30.24,South,179,4.0,6.0,71,0.00,,,0.00,WUHU216DAVISVP2,2013-02-02 16:20:00,
2013-02-02 10:26:00,63.4,53.6,30.24,SSE,155,5.0,6.0,70,0.00,,,0.00,WUHU216DAVISVP2,2013-02-02 16:26:00,
2013-02-02 10:31:00,63.9,53.7,30.23,SE,144,3.0,8.0,69,0.00,,,0.00,WUHU216DAVISVP2,2013-02-02 16:31:00,
2013-02-02 10:36:00,64.4,54.2,30.23,SSW,207,1.0,8.0,69,0.00,,,0.00,WUHU216DAVISVP2,2013-02-02 16:36:00,
2013-02-02 10:41:00,64.8,54.2,30.23,SSE,150,2.0,8.0,68,0.00,,,0.00,WUHU216DAVISVP2,2013-02-02 16:41:00,
2013-02-02 10:46:00,65.6,54.5,30.23,SSE,154,2.0,7.0,67,0.00,,,0.00,WUHU216DAVISVP2,2013-02-02 16:46:00,
2013-02-02 10:51:00,66.3,54.8,30.23,South,171,3.0,7.0,66,0.00,,,0.00,WUHU216DAVISVP2,2013-02-02 16:51:00,
2013-02-02 10:56:00,66.5,55.4,30.23,SSE,150,5.0,10.0,67,0.00,,,0.00,WUHU216DAVISVP2,2013-02-02 16:56:00,
2013-02-02 11:01:00,66.5,55.0,30.23,SSE,160,1.0,10.0,66,0.00,,,0.00,WUHU216DAVISVP2,2013-02-02 17:01:00,
2013-02-02 11:06:00,67.0,54.8,30.23,SSE,155,2.0,10.0,65,0.00,,,0.00,WUHU216DAVISVP2,2013-02-02 17:06:00,
2013-02-02 11:11:00,67.5,55.5,30.23,SE,139,7.0,8.0,65,0.00,,,0.00,WUHU216DAVISVP2,2013-02-02 17:11:00,
2013-02-02 11:16:00,68.1,56.1,30.23,ESE,121,7.0,8.0,65,0.00,,,0.00,WUHU216DAVISVP2,2013-02-02 17:16:00,
2013-02-02 11:21:00,68.4,55.9,30.23,South,171,2.0,8.0,64,0.00,,,0.00,WUHU216DAVISVP2,2013-02-02 17:21:00,
2013-02-02 11:26:00,69.1,56.2,30.23,SSE,154,4.0,8.0,63,0.00,,,0.00,WUHU216DAVISVP2,2013-02-02 17:26:00,
2013-02-02 11:31:00,69.1,55.7,30.23,South,186,2.0,8.0,62,0.00,,,0.00,WUHU216DAVISVP2,2013-02-02 17:31:00,
2013-02-02 11:36:00,69.4,56.0,30.23,WSW,249,2.0,7.0,62,0.00,,,0.00,WUHU216DAVISVP2,2013-02-02 17:36:00,
2013-02-02 11:41:00,70.0,55.5,30.23,SSE,158,5.0,7.0,60,0.00,,,0.00,WUHU216DAVISVP2,2013-02-02 17:41:00,
2013-02-02 11:46:00,70.1,56.9,30.23,SSE,153,4.0,7.0,63,0.00,,,0.00,WUHU216DAVISVP2,2013-02-02 17:46:00,
2013-02-02 11:51:00,70.1,56.0,30.22,SE,146,6.0,8.0,61,0.00,,,0.00,WUHU216DAVISVP2,2013-02-02 17:51:00,
2013-02-02 11:56:00,70.5,56.4,30.22,SSE,161,2.0,8.0,61,0.00,,,0.00,WUHU216DAVISVP2,2013-02-02 17:56:00,
2013-02-02 12:01:00,70.6,56.5,30.22,SSW,193,1.0,8.0,61,0.00,,,0.00,WUHU216DAVISVP2,2013-02-02 18:01:00,
2013-02-02 12:06:00,70.9,55.9,30.22,SSW,213,3.0,8.0,59,0.00,,,0.00,WUHU216DAVISVP2,2013-02-02 18:06:00,
2013-02-02 12:11:00,71.4,56.3,30.22,WNW,286,0.0,7.0,59,0.00,,,0.00,WUHU216DAVISVP2,2013-02-02 18:11:00,
2013-02-02 12:16:00,71.3,56.2,30.22,SSE,164,2.0,9.0,59,0.00,,,0.00,WUHU216DAVISVP2,2013-02-02 18:16:00,
2013-02-02 12:21:00,72.1,56.5,30.21,WSW,240,2.0,9.0,58,0.00,,,0.00,WUHU216DAVISVP2,2013-02-02 18:21:00,
2013-02-02 12:26:00,72.3,56.2,30.21,WNW,297,5.0,9.0,57,0.00,,,0.00,WUHU216DAVISVP2,2013-02-02 18:26:00,
2013-02-02 12:31:00,71.3,55.8,30.21,WNW,284,1.0,9.0,58,0.00,,,0.00,WUHU216DAVISVP2,2013-02-02 18:31:00,
2013-02-02 12:36:00,70.8,55.3,30.21,South,182,0.0,7.0,58,0.00,,,0.00,WUHU216DAVISVP2,2013-02-02 18:36:00,
2013-02-02 12:41:00,70.4,55.4,30.21,SSW,200,1.0,7.0,59,0.00,,,0.00,WUHU216DAVISVP2,2013-02-02 18:41:00,
2013-02-02 12:46:00,70.7,55.2,30.20,SSE,155,1.0,5.0,58,0.00,,,0.00,WUHU216DAVISVP2,2013-02-02 18:46:00,
2013-02-02 12:51:00,70.6,55.3,30.20,SSE,155,1.0,5.0,58,0.00,,,0.00,WUHU216DAVISVP2,2013-02-02 18:51:00,
2013-02-02 12:56:00,70.4,55.1,30.20,WSW,250,1.0,5.0,58,0.00,,,0.00,WUHU216DAVISVP2,2013-02-02 18:56:00,
2013-02-02 13:01:00,70.7,56.3,30.20,SSE,167,3.0,5.0,60,0.00,,,0.00,WUHU216DAVISVP2,2013-02-02 19:01:00,
2013-02-02 13:06:00,71.4,55.5,30.20,South,171,1.0,3.0,57,0.00,,,0.00,WUHU216DAVISVP2,2013-02-02 19:06:00,
2013-02-02 13:11:00,71.3,54.9,30.20,SSW,213,1.0,3.0,56,0.00,,,0.00,WUHU216DAVISVP2,2013-02-02 19:11:00,
2013-02-02 13:16:00,71.0,55.2,30.19,West,269,0.0,6.0,57,0.00,,,0.00,WUHU216DAVISVP2,2013-02-02 19:16:00,
2013-02-02 13:21:00,71.7,55.3,30.19,SSE,163,1.0,6.0,56,0.00,,,0.00,WUHU216DAVISVP2,2013-02-02 19:21:00,
2013-02-02 13:26:00,72.8,56.3,30.19,SSE,150,2.0,6.0,56,0.00,,,0.00,WUHU216DAVISVP2,2013-02-02 19:26:00,
2013-02-02 13:31:00,73.5,54.4,30.18,SW,220,1.0,5.0,51,0.00,,,0.00,WUHU216DAVISVP2,2013-02-02 19:31:00,
2013-02-02 13:36:00,73.8,55.1,30.18,ESE,123,4.0,6.0,52,0.00,,,0.00,WUHU216DAVISVP2,2013-02-02 19:36:00,
2013-02-02 13:41:00,74.0,54.7,30.18,SE,146,1.0,6.0,51,0.00,,,0.00,WUHU216DAVISVP2,2013-02-02 19:41:00,
2013-02-02 13:46:00,73.8,53.4,30.18,SSE,155,0.0,6.0,49,0.00,,,0.00,WUHU216DAVISVP2,2013-02-02 19:46:00,
2013-02-02 13:51:00,73.4,54.8,30.17,SSE,151,2.0,6.0,52,0.00,,,0.00,WUHU216DAVISVP2,2013-02-02 19:51:00,
2013-02-02 13:56:00,73.4,53.7,30.17,SSE,162,1.0,6.0,50,0.00,,,0.00,WUHU216DAVISVP2,2013-02-02 19:56:00,
2013-02-02 14:01:00,73.5,53.2,30.17,SW,231,0.0,6.0,49,0.00,,,0.00,WUHU216DAVISVP2,2013-02-02 20:01:00,
2013-02-02 14:06:00,73.8,54.1,30.17,ESE,120,3.0,7.0,50,0.00,,,0.00,WUHU216DAVISVP2,2013-02-02 20:06:00,
2013-02-02 14:11:00,74.4,53.5,30.17,SW,230,0.0,7.0,48,0.00,,,0.00,WUHU216DAVISVP2,2013-02-02 20:11:00,
2013-02-02 14:16:00,75.0,53.4,30.17,SW,214,0.0,7.0,47,0.00,,,0.00,WUHU216DAVISVP2,2013-02-02 20:16:00,
2013-02-02 14:21:00,75.2,53.6,30.17,WNW,285,1.0,7.0,47,0.00,,,0.00,WUHU216DAVISVP2,2013-02-02 20:21:00,
2013-02-02 14:26:00,75.5,52.7,30.17,WNW,282,0.0,5.0,45,0.00,,,0.00,WUHU216DAVISVP2,2013-02-02 20:26:00,
2013-02-02 14:31:00,75.3,53.1,30.16,SW,234,0.0,5.0,46,0.00,,,0.00,WUHU216DAVISVP2,2013-02-02 20:31:00,
2013-02-02 14:36:00,75.7,51.6,30.16,SSE,163,0.0,5.0,43,0.00,,,0.00,WUHU216DAVISVP2,2013-02-02 20:36:00,
2013-02-02 14:41:00,75.6,52.1,30.16,East,101,1.0,6.0,44,0.00,,,0.00,WUHU216DAVISVP2,2013-02-02 20:41:00,
2013-02-02 14:46:00,75.7,52.2,30.16,NNE,29,0.0,6.0,44,0.00,,,0.00,WUHU216DAVISVP2,2013-02-02 20:46:00,
2013-02-02 14:51:00,75.7,52.8,30.16,SSE,157,2.0,6.0,45,0.00,,,0.00,WUHU216DAVISVP2,2013-02-02 20:51:00,
2013-02-02 14:56:00,75.4,51.3,30.16,NNE,27,0.0,6.0,43,0.00,,,0.00,WUHU216DAVISVP2,2013-02-02 20:56:00,
2013-02-02 15:01:00,75.5,50.7,30.16,WNW,286,0.0,6.0,42,0.00,,,0.00,WUHU216DAVISVP2,2013-02-02 21:01:00,
2013-02-02 15:06:00,75.5,52.0,30.16,South,180,3.0,6.0,44,0.00,,,0.00,WUHU216DAVISVP2,2013-02-02 21:06:00,
2013-02-02 15:11:00,75.4,51.3,30.16,SW,224,1.0,6.0,43,0.00,,,0.00,WUHU216DAVISVP2,2013-02-02 21:11:00,
2013-02-02 15:16:00,75.4,51.3,30.16,West,281,0.0,5.0,43,0.00,,,0.00,WUHU216DAVISVP2,2013-02-02 21:16:00,
2013-02-02 15:21:00,75.7,51.6,30.16,WSW,254,3.0,5.0,43,0.00,,,0.00,WUHU216DAVISVP2,2013-02-02 21:21:00,
2013-02-02 15:26:00,75.8,51.7,30.16,SW,236,2.0,4.0,43,0.00,,,0.00,WUHU216DAVISVP2,2013-02-02 21:26:00,
2013-02-02 15:31:00,75.7,51.6,30.16,WSW,250,1.0,4.0,43,0.00,,,0.00,WUHU216DAVISVP2,2013-02-02 21:31:00,
2013-02-02 15:36:00,75.7,51.6,30.15,SSE,154,0.0,4.0,43,0.00,,,0.00,WUHU216DAVISVP2,2013-02-02 21:36:00,
2013-02-02 15:41:00,75.7,52.2,30.15,WNW,282,0.0,4.0,44,0.00,,,0.00,WUHU216DAVISVP2,2013-02-02 21:41:00,
2013-02-02 15:46:00,76.1,51.9,30.15,NW,311,1.0,4.0,43,0.00,,,0.00,WUHU216DAVISVP2,2013-02-02 21:46:00,
2013-02-02 15:51:00,76.1,52.6,30.14,NNW,340,0.0,4.0,44,0.00,,,0.00,WUHU216DAVISVP2,2013-02-02 21:51:00,
2013-02-02 15:56:00,76.2,52.0,30.14,NNW,340,0.0,4.0,43,0.00,,,0.00,WUHU216DAVISVP2,2013-02-02 21:56:00,
2013-02-02 16:01:00,76.4,51.6,30.14,SSW,205,1.0,4.0,42,0.00,,,0.00,WUHU216DAVISVP2,2013-02-02 22:01:00,
2013-02-02 16:06:00,76.4,50.9,30.14,SSE,158,1.0,4.0,41,0.00,,,0.00,WUHU216DAVISVP2,2013-02-02 22:06:00,
2013-02-02 16:11:00,75.6,52.1,30.14,SSE,153,1.0,4.0,44,0.00,,,0.00,WUHU216DAVISVP2,2013-02-02 22:11:00,
2013-02-02 16:16:00,74.9,50.3,30.15,South,171,0.0,4.0,42,0.00,,,0.00,WUHU216DAVISVP2,2013-02-02 22:16:00,
2013-02-02 16:21:00,74.3,50.4,30.14,South,187,0.0,4.0,43,0.00,,,0.00,WUHU216DAVISVP2,2013-02-02 22:21:00,
2013-02-02 16:26:00,74.4,50.4,30.15,SSW,210,0.0,3.0,43,0.00,,,0.00,WUHU216DAVISVP2,2013-02-02 22:26:00,
2013-02-02 16:31:00,74.6,50.6,30.15,SSE,167,1.0,4.0,43,0.00,,,0.00,WUHU216DAVISVP2,2013-02-02 22:31:00,
2013-02-02 16:36:00,74.5,50.5,30.15,SE,140,1.0,4.0,43,0.00,,,0.00,WUHU216DAVISVP2,2013-02-02 22:36:00,
2013-02-02 16:41:00,74.5,50.5,30.15,SE,144,0.0,4.0,43,0.00,,,0.00,WUHU216DAVISVP2,2013-02-02 22:41:00,
2013-02-02 16:46:00,74.8,50.8,30.15,SSE,168,0.0,4.0,43,0.00,,,0.00,WUHU216DAVISVP2,2013-02-02 22:46:00,
2013-02-02 16:51:00,75.1,51.0,30.15,WSW,252,0.0,3.0,43,0.00,,,0.00,WUHU216DAVISVP2,2013-02-02 22:51:00,
2013-02-02 16:56:00,75.3,50.6,30.15,West,273,0.0,3.0,42,0.00,,,0.00,WUHU216DAVISVP2,2013-02-02 22:56:00,
2013-02-02 17:01:00,75.6,51.5,30.15,South,176,1.0,3.0,43,0.00,,,0.00,WUHU216DAVISVP2,2013-02-02 23:01:00,
2013-02-02 17:06:00,75.5,50.7,30.15,SW,224,0.0,3.0,42,0.00,,,0.00,WUHU216DAVISVP2,2013-02-02 23:06:00,
2013-02-02 17:11:00,75.2,50.5,30.15,SSE,161,0.0,3.0,42,0.00,,,0.00,WUHU216DAVISVP2,2013-02-02 23:11:00,
2013-02-02 17:16:00,74.6,50.0,30.15,SSE,160,0.0,3.0,42,0.00,,,0.00,WUHU216DAVISVP2,2013-02-02 23:16:00,
2013-02-02 17:21:00,74.3,51.0,30.15,SSE,168,0.0,2.0,44,0.00,,,0.00,WUHU216DAVISVP2,2013-02-02 23:21:00,
2013-02-02 17:26:00,74.0,50.7,30.16,South,171,0.0,1.0,44,0.00,,,0.00,WUHU216DAVISVP2,2013-02-02 23:26:00,
2013-02-02 17:31:00,73.6,50.3,30.16,South,171,0.0,1.0,44,0.00,,,0.00,WUHU216DAVISVP2,2013-02-02 23:31:00,
2013-02-02 17:36:00,73.3,50.7,30.16,South,171,0.0,1.0,45,0.00,,,0.00,WUHU216DAVISVP2,2013-02-02 23:36:00,
2013-02-02 17:41:00,72.9,50.9,30.16,SSW,196,1.0,1.0,46,0.00,,,0.00,WUHU216DAVISVP2,2013-02-02 23:41:00,
2013-02-02 17:46:00,72.5,51.1,30.16,West,275,1.0,1.0,47,0.00,,,0.00,WUHU216DAVISVP2,2013-02-02 23:46:00,
2013-02-02 17:51:00,72.1,51.4,30.16,NW,308,1.0,2.0,48,0.00,,,0.00,WUHU216DAVISVP2,2013-02-02 23:51:00,
2013-02-02 17:56:00,71.6,50.9,30.16,WNW,299,0.0,2.0,48,0.00,,,0.00,WUHU216DAVISVP2,2013-02-02 23:56:00,
2013-02-02 18:01:00,71.3,50.6,30.16,WNW,299,0.0,2.0,48,0.00,,,0.00,WUHU216DAVISVP2,2013-02-03 00:01:00,
2013-02-02 18:06:00,70.8,50.7,30.16,WNW,299,0.0,2.0,49,0.00,,,0.00,WUHU216DAVISVP2,2013-02-03 00:06:00,
2013-02-02 18:11:00,70.5,50.5,30.17,WNW,299,0.0,1.0,49,0.00,,,0.00,WUHU216DAVISVP2,2013-02-03 00:11:00,
2013-02-02 18:16:00,70.0,50.6,30.17,WNW,299,0.0,1.0,50,0.00,,,0.00,WUHU216DAVISVP2,2013-02-03 00:16:00,
2013-02-02 18:21:00,69.4,50.6,30.17,WNW,299,0.0,1.0,51,0.00,,,0.00,WUHU216DAVISVP2,2013-02-03 00:21:00,
2013-02-02 18:26:00,68.7,50.4,30.17,WNW,299,0.0,1.0,52,0.00,,,0.00,WUHU216DAVISVP2,2013-02-03 00:26:00,
2013-02-02 18:31:00,67.9,50.7,30.17,WNW,299,0.0,1.0,54,0.00,,,0.00,WUHU216DAVISVP2,2013-02-03 00:31:00,
2013-02-02 18:36:00,67.2,50.6,30.17,WNW,301,0.0,1.0,55,0.00,,,0.00,WUHU216DAVISVP2,2013-02-03 00:36:00,
2013-02-02 18:41:00,66.6,50.0,30.17,WNW,301,0.0,0.0,55,0.00,,,0.00,WUHU216DAVISVP2,2013-02-03 00:41:00,
2013-02-02 18:46:00,66.1,50.6,30.18,WNW,301,0.0,0.0,57,0.00,,,0.00,WUHU216DAVISVP2,2013-02-03 00:46:00,
2013-02-02 18:51:00,65.7,50.2,30.18,WNW,301,0.0,0.0,57,0.00,,,0.00,WUHU216DAVISVP2,2013-02-03 00:51:00,
2013-02-02 18:56:00,65.3,49.8,30.18,WNW,301,0.0,0.0,57,0.00,,,0.00,WUHU216DAVISVP2,2013-02-03 00:56:00,
2013-02-02 19:01:00,65.0,50.0,30.18,WNW,301,0.0,0.0,58,0.00,,,0.00,WUHU216DAVISVP2,2013-02-03 01:01:00,
2013-02-02 19:06:00,64.8,49.8,30.18,WNW,302,0.0,0.0,58,0.00,,,0.00,WUHU216DAVISVP2,2013-02-03 01:06:00,
2013-02-02 19:11:00,64.7,49.7,30.18,WNW,301,0.0,0.0,58,0.00,,,0.00,WUHU216DAVISVP2,2013-02-03 01:11:00,
2013-02-02 19:16:00,64.3,49.8,30.19,WNW,301,0.0,0.0,59,0.00,,,0.00,WUHU216DAVISVP2,2013-02-03 01:16:00,
2013-02-02 19:21:00,64.0,49.5,30.19,WNW,301,0.0,0.0,59,0.00,,,0.00,WUHU216DAVISVP2,2013-02-03 01:21:00,
2013-02-02 19:26:00,63.5,49.4,30.19,WNW,301,0.0,0.0,60,0.00,,,0.00,WUHU216DAVISVP2,2013-02-03 01:26:00,
2013-02-02 19:31:00,63.1,49.4,30.20,WNW,302,0.0,0.0,61,0.00,,,0.00,WUHU216DAVISVP2,2013-02-03 01:31:00,
2013-02-02 19:36:00,62.6,49.4,30.20,NW,322,0.0,1.0,62,0.00,,,0.00,WUHU216DAVISVP2,2013-02-03 01:36:00,
2013-02-02 19:41:00,62.3,49.5,30.20,NW,322,0.0,1.0,63,0.00,,,0.00,WUHU216DAVISVP2,2013-02-03 01:41:00,
2013-02-02 19:46:00,61.9,49.3,30.20,NW,322,0.0,1.0,63,0.00,,,0.00,WUHU216DAVISVP2,2013-02-03 01:46:00,
2013-02-02 19:51:00,61.5,49.4,30.20,NW,322,0.0,1.0,64,0.00,,,0.00,WUHU216DAVISVP2,2013-02-03 01:51:00,
2013-02-02 19:56:00,61.0,49.3,30.20,NW,322,0.0,0.0,65,0.00,,,0.00,WUHU216DAVISVP2,2013-02-03 01:56:00,
2013-02-02 20:01:00,60.7,49.0,30.20,NW,322,0.0,0.0,65,0.00,,,0.00,WUHU216DAVISVP2,2013-02-03 02:01:00,
2013-02-02 20:06:00,60.3,49.0,30.20,NW,322,0.0,0.0,66,0.00,,,0.00,WUHU216DAVISVP2,2013-02-03 02:06:00,
2013-02-02 20:11:00,59.8,49.0,30.20,NW,322,0.0,0.0,67,0.00,,,0.00,WUHU216DAVISVP2,2013-02-03 02:11:00,
2013-02-02 20:16:00,59.6,49.2,30.21,NW,322,0.0,0.0,68,0.00,,,0.00,WUHU216DAVISVP2,2013-02-03 02:16:00,
2013-02-02 20:21:00,59.1,48.7,30.21,NW,322,0.0,0.0,68,0.00,,,0.00,WUHU216DAVISVP2,2013-02-03 02:21:00,
2013-02-02 20:26:00,58.9,48.9,30.21,NW,322,0.0,0.0,69,0.00,,,0.00,WUHU216DAVISVP2,2013-02-03 02:26:00,
2013-02-02 20:31:00,58.9,48.9,30.22,NW,322,0.0,0.0,69,0.00,,,0.00,WUHU216DAVISVP2,2013-02-03 02:31:00,
2013-02-02 20:36:00,58.9,48.9,30.22,NW,322,0.0,0.0,69,0.00,,,0.00,WUHU216DAVISVP2,2013-02-03 02:36:00,
2013-02-02 20:41:00,58.7,48.7,30.22,NW,322,0.0,0.0,69,0.00,,,0.00,WUHU216DAVISVP2,2013-02-03 02:41:00,
2013-02-02 20:46:00,58.4,48.4,30.22,NW,322,0.0,0.0,69,0.00,,,0.00,WUHU216DAVISVP2,2013-02-03 02:46:00,
2013-02-02 20:51:00,57.9,48.3,30.22,NW,322,0.0,0.0,70,0.00,,,0.00,WUHU216DAVISVP2,2013-02-03 02:51:00,
2013-02-02 20:56:00,57.7,48.1,30.22,NW,322,0.0,0.0,70,0.00,,,0.00,WUHU216DAVISVP2,2013-02-03 02:56:00,
2013-02-02 21:01:00,57.5,48.3,30.22,NW,322,0.0,0.0,71,0.00,,,0.00,WUHU216DAVISVP2,2013-02-03 03:01:00,
2013-02-02 21:06:00,57.3,48.1,30.22,NW,322,0.0,0.0,71,0.00,,,0.00,WUHU216DAVISVP2,2013-02-03 03:06:00,
2013-02-02 21:11:00,57.1,48.3,30.22,NW,322,0.0,0.0,72,0.00,,,0.00,WUHU216DAVISVP2,2013-02-03 03:11:00,
2013-02-02 21:16:00,56.6,47.4,30.22,NW,322,0.0,0.0,71,0.00,,,0.00,WUHU216DAVISVP2,2013-02-03 03:16:00,
2013-02-02 21:21:00,56.2,47.8,30.22,NW,322,0.0,0.0,73,0.00,,,0.00,WUHU216DAVISVP2,2013-02-03 03:21:00,
2013-02-02 21:26:00,55.9,47.5,30.23,NW,322,0.0,0.0,73,0.00,,,0.00,WUHU216DAVISVP2,2013-02-03 03:26:00,
2013-02-02 21:31:00,55.5,47.4,30.23,NW,322,0.0,0.0,74,0.00,,,0.00,WUHU216DAVISVP2,2013-02-03 03:31:00,
2013-02-02 21:36:00,55.3,47.6,30.23,NW,322,0.0,0.0,75,0.00,,,0.00,WUHU216DAVISVP2,2013-02-03 03:36:00,
2013-02-02 21:41:00,55.4,47.7,30.23,NW,322,0.0,0.0,75,0.00,,,0.00,WUHU216DAVISVP2,2013-02-03 03:41:00,
2013-02-02 21:46:00,55.4,47.7,30.24,NW,322,0.0,0.0,75,0.00,,,0.00,WUHU216DAVISVP2,2013-02-03 03:46:00,
2013-02-02 21:51:00,55.5,47.7,30.24,NW,322,0.0,0.0,75,0.00,,,0.00,WUHU216DAVISVP2,2013-02-03 03:51:00,
2013-02-02 21:56:00,55.6,47.9,30.24,NNE,16,3.0,3.0,75,0.00,,,0.00,WUHU216DAVISVP2,2013-02-03 03:56:00,
2013-02-02 22:01:00,55.8,47.6,30.24,NNE,15,1.0,4.0,74,0.00,,,0.00,WUHU216DAVISVP2,2013-02-03 04:01:00,
2013-02-02 22:06:00,56.3,48.1,30.24,North,9,2.0,5.0,74,0.00,,,0.00,WUHU216DAVISVP2,2013-02-03 04:06:00,
2013-02-02 22:11:00,56.9,48.3,30.24,NNE,13,1.0,6.0,73,0.00,,,0.00,WUHU216DAVISVP2,2013-02-03 04:11:00,
2013-02-02 22:16:00,57.5,48.5,30.24,NNE,15,0.0,6.0,72,0.00,,,0.00,WUHU216DAVISVP2,2013-02-03 04:16:00,
2013-02-02 22:21:00,57.8,48.5,30.25,NNE,22,2.0,6.0,71,0.00,,,0.00,WUHU216DAVISVP2,2013-02-03 04:21:00,
2013-02-02 22:26:00,58.0,48.3,30.25,NNE,13,1.0,6.0,70,0.00,,,0.00,WUHU216DAVISVP2,2013-02-03 04:26:00,
2013-02-02 22:31:00,58.1,48.5,30.25,NNW,340,3.0,6.0,70,0.00,,,0.00,WUHU216DAVISVP2,2013-02-03 04:31:00,
2013-02-02 22:36:00,58.0,48.4,30.25,North,11,3.0,6.0,70,0.00,,,0.00,WUHU216DAVISVP2,2013-02-03 04:36:00,
2013-02-02 22:41:00,58.0,48.4,30.25,North,9,2.0,6.0,70,0.00,,,0.00,WUHU216DAVISVP2,2013-02-03 04:41:00,
2013-02-02 22:46:00,58.0,48.8,30.25,NNE,20,1.0,6.0,71,0.00,,,0.00,WUHU216DAVISVP2,2013-02-03 04:46:00,
2013-02-02 22:51:00,57.9,48.7,30.25,North,360,3.0,6.0,71,0.00,,,0.00,WUHU216DAVISVP2,2013-02-03 04:51:00,
2013-02-02 22:56:00,57.9,48.7,30.25,NNE,33,2.0,6.0,71,0.00,,,0.00,WUHU216DAVISVP2,2013-02-03 04:56:00,
2013-02-02 23:00:00,57.9,48.7,30.25,North,5,1.0,6.0,71,0.00,,,0.00,WUHU216DAVISVP2,2013-02-03 05:00:00,
2013-02-02 23:03:00,57.9,48.6,30.25,North,5,2.0,4.0,71,0.00,,,0.00,WUHU216DAVISVP2,2013-02-03 05:03:00,
2013-02-02 23:08:00,57.8,48.5,30.25,NNE,14,0.0,4.0,71,0.00,,,0.00,WUHU216DAVISVP2,2013-02-03 05:08:00,
2013-02-02 23:13:00,57.7,48.9,30.25,NNE,33,2.0,4.0,72,0.00,,,0.00,WUHU216DAVISVP2,2013-02-03 05:13:00,
2013-02-02 23:18:00,57.6,48.8,30.26,NE,40,1.0,4.0,72,0.00,,,0.00,WUHU216DAVISVP2,2013-02-03 05:18:00,
2013-02-02 23:23:00,57.7,48.9,30.26,NE,46,2.0,5.0,72,0.00,,,0.00,WUHU216DAVISVP2,2013-02-03 05:23:00,
2013-02-02 23:28:00,57.7,48.9,30.26,NE,46,1.0,5.0,72,0.00,,,0.00,WUHU216DAVISVP2,2013-02-03 05:28:00,
2013-02-02 23:33:00,57.7,48.9,30.26,North,355,0.0,5.0,72,0.00,,,0.00,WUHU216DAVISVP2,2013-02-03 05:33:00,
2013-02-02 23:38:00,57.7,48.5,30.26,ENE,63,1.0,5.0,71,0.00,,,0.00,WUHU216DAVISVP2,2013-02-03 05:38:00,
2013-02-02 23:43:00,57.7,48.5,30.26,ENE,66,3.0,5.0,71,0.00,,,0.00,WUHU216DAVISVP2,2013-02-03 05:43:00,
2013-02-02 23:48:00,57.8,48.5,30.26,ENE,63,3.0,5.0,71,0.00,,,0.00,WUHU216DAVISVP2,2013-02-03 05:48:00,
2013-02-02 23:53:00,57.7,48.4,30.26,NE,46,1.0,5.0,71,0.00,,,0.00,WUHU216DAVISVP2,2013-02-03 05:53:00,
2013-02-02 23:58:00,57.6,48.4,30.26,NE,44,3.0,5.0,71,0.00,,,0.00,WUHU216DAVISVP2,2013-02-03 05:58:00,